User: anonymous   Login
Location: Turtle Rock Observatory
(36.6913°N, 81.9708°W)
Time: 02:15:40
(UTC-04:00)
Language:

Cosmos 1125 Rocket - Orbit

View from above orbital plane
View from above orbital plane
View from above satellite
View from above satellite

Ground track
Ground track

The orbit data is extracted from the following two-line orbital elements,

1 11511U 79078B   16206.48666911  .00000091  00000-0  39704-4 0  9993
2 11511  74.0350 197.5894 0015317 166.2720 193.8853 14.36721646931554
Epoch (UTC): 24 July 2016 11:40:48
Eccentricity: 0.0015317
inclination: 74.0350°
perigee height: 758 km
apogee height: 780 km
right ascension of ascending node: 197.5894°
argument of perigee: 166.2720°
revolutions per day: 14.36721646
mean anomaly at epoch: 193.8853°
orbit number at epoch: 93155

The dashed part of the orbit path shows where the satellite is in the earth's shadow,  

DLR